STARLINK-5722, 55610

Orbit data source: Space-Track

STARLINK-5722, 55610 is a payload satellite owned by SpaceX/Seattle (US) in LEO that was launched on Sun, 12 Feb 2023 UTC via an FALCON 9 launch vehicle from the Air Force Eastern Test Range (AFETR). Payload-class satellites include a variety of spacecraft equipped with specific instruments for various scientific and technological missions. These include communications satellites like Starlink; space stations such as the ISS; scientific satellites like the Hubble; Earth observation satellites from companies like Planet Labs, Umbra, and HawkEye 360; GPS; miniature CubeSats for education and research; and military/defense satellites.

Loading next visibility...
Identifier
55610, 2023-020AT
Orbit
LEO
Country
Flag of USUS
Related business
Manufacturer
SpaceX/Seattle
Mission
Operational Commercial Communications
Bus & Motor
STARLINK, Unknown motor
Mass
305 kg wet, ~290 kg dry
Launch date (UTC)
2023-02-12 (4 years ago)
Launch vehicle
FALCON 9
Launch site
Air Force Eastern Test Range (AFETR)
Object type
Payload
Rocket body
Debris
Shape & HBR
Box + 1 Pan, 10.1 m
Radar Cross Section
13.562 m², Large (>1 m²)

Expand to show TLE details & history
Last TLE update: 2 days ago

TLE from 2 days ago
0 STARLINK-5722
1 55610U 23020AT  26262.93625788  .00000166  00000-0  15562-4 0  9996
2 55610  43.0060 337.4930 0001845 288.7746  71.2906 15.27577376198745
Epoch: 2026-09-19T22:28Z
TLE epoch observation values (Epoch: 2026-09-19T22:28:12.680Z)
Latitude
Longitude
1.60253°
Altitude
482.427 km
Speed
7.626 km/s
True Right ascension
22h 29m 58s
True Declination
0° 00' 00"
Sunlit
Object was in full shadow at epoch
Visualization orbit readout
Latitude
Unknown
Longitude
Unknown
Altitude
Unknown
Speed
Unknown
Apparent Right ascension
Unknown
Apparent Declination
Unknown
Sunlit
N/A
Visualization observer readout
Local Sidereal Time
08:08:20
Azimuth
Unknown
Elevation
Unknown
Doppler factor
Unknown
Orbital elements
Apogee altitude
486.267 km
Perigee altitude
483.735 km
Semi-major axis
6,863.138 km
Eccentricity
0.00018
Inclination
43.006°
RAAN
337.493°
Arg. of periapsis
288.7746°
True anomaly
71.31063°
Mean anomaly
71.2906°
Eccentric anomaly
71.30061°
Mean motion
3.81732 °/min
Orbital period
94.31 mins
BSTAR
0.000015562
Loading maneuver chart data...
Computing Atmospheric mass density...
Loading historical data...
Loading historical data...
Loading historical data...
Loading historical data...
Loading historical data...
Loading historical data...
Loading historical data...

Documentation

Showing up to 5 results
|